Hayward, WI

2:27 PM CDT on June 22, 2017 (GMT -0500)
Sawyer County

Weather History for KHYR - April, 2013

Change the Weather History Date:

Friday, April 5, 2013

  Actual Average Record
Temperature  
Mean Temperature 27 °F -  
Max Temperature 39 °F 54 °F 73 °F (2005)
Min Temperature 15 °F 28 °F 6 °F (2014)
Degree Days  
Heating Degree Days 38    
Moisture  
Dew Point 16 °F    
Average Humidity 59    
Maximum Humidity 84    
Minimum Humidity 31    
Precipitation  
Precipitation 0.00 in - - ()
Sea Level Pressure  
Sea Level Pressure 30.19 in    
Wind  
Wind Speed 3 mph (SE)    
Max Wind Speed 9 mph    
Max Gust Speed -    
Visibility 9 miles    
Events Snow    
Averages and records for this station are not official NWS values.
T = Trace of Precipitation, MM = Missing Value Source: NWS Daily Summary

Daily Weather History Graph

Daily Weather History Graph

Search for Another Location

Airport or City:

Trip Planner

Search our weather history database for the weather conditions in past years. The results will help you decide how hot, cold, wet, or windy it might be!

Date:

Astronomy

Apr. 05, 2013 Rise Set
Actual Time 6:37 AM CDT 7:40 PM CDT
Civil Twilight 6:07 AM CDT 8:10 PM CDT
Nautical Twilight 5:30 AM CDT 8:47 PM CDT
Astronomical Twilight 4:52 AM CDT 9:25 PM CDT
Moon 4:00 AM CDT (4/5) 2:50 PM CDT (4/5)
Length of Visible Light 14h 03m
Length of Day
13h 02m
Waning Crescent, 23% of the Moon is Illuminated
Apr 5
Waning Crescent
Apr 10
New
Apr 18
First Quarter
Apr 25
Full
May 2
Last Quarter

Hourly Weather History & Observations

Time (CDT) Temp. Windchill Dew Point Humidity Pressure Visibility Wind Dir Wind Speed Gust Speed Precip Events Conditions
12:53 AM 23.0 °F - 16.0 °F 74% 30.20 in 10.0 mi Calm Calm - N/A   Clear
1:53 AM 21.9 °F - 15.1 °F 75% 30.21 in 10.0 mi Calm Calm - N/A   Clear
2:53 AM 19.0 °F - 14.0 °F 81% 30.22 in 10.0 mi Calm Calm - N/A   Clear
3:53 AM 18.0 °F - 14.0 °F 84% 30.24 in 10.0 mi Calm Calm - N/A   Clear
4:53 AM 17.1 °F - 12.9 °F 84% 30.25 in 10.0 mi Calm Calm - N/A   Clear
5:53 AM 16.0 °F - 12.0 °F 84% 30.27 in 10.0 mi Calm Calm - N/A   Clear
6:53 AM 15.1 °F - 10.9 °F 84% 30.29 in 10.0 mi Calm Calm - N/A   Clear
7:53 AM 25.0 °F - 18.0 °F 75% 30.30 in 10.0 mi Calm Calm - N/A   Clear
8:53 AM 30.0 °F 22.4 °F 17.1 °F 59% 30.29 in 10.0 mi ENE 8.1 mph - N/A   Clear
9:53 AM 32.0 °F 26.4 °F 16.0 °F 52% 30.29 in 10.0 mi SE 5.8 mph - N/A   Clear
10:53 AM 34.0 °F 28.8 °F 14.0 °F 44% 30.27 in 10.0 mi East 5.8 mph - N/A   Clear
11:53 AM 36.0 °F 32.1 °F 12.0 °F 37% 30.27 in 10.0 mi Variable 4.6 mph - N/A   Clear
12:53 PM 39.0 °F 35.7 °F 14.0 °F 36% 30.25 in 10.0 mi Variable 4.6 mph - N/A   Clear
1:53 PM 39.9 °F 35.8 °F 15.1 °F 36% 30.22 in 10.0 mi East 5.8 mph - N/A   Clear
2:53 PM 39.9 °F - 10.9 °F 31% 30.21 in 10.0 mi Calm Calm - N/A   Clear
3:53 PM 39.9 °F 35.1 °F 10.9 °F 31% 30.19 in 10.0 mi South 6.9 mph - N/A   Scattered Clouds
4:53 PM 39.9 °F 36.7 °F 12.9 °F 33% 30.17 in 10.0 mi Variable 4.6 mph - N/A   Mostly Cloudy
5:53 PM 39.0 °F 34.0 °F 12.9 °F 34% 30.16 in 10.0 mi South 6.9 mph - N/A   Overcast
6:53 PM 37.9 °F 33.5 °F 12.9 °F 36% 30.13 in 10.0 mi SE 5.8 mph - N/A   Overcast
7:53 PM 37.0 °F 33.3 °F 14.0 °F 39% 30.12 in 10.0 mi ESE 4.6 mph - N/A   Overcast
8:53 PM 37.0 °F 32.4 °F 17.1 °F 44% 30.11 in 10.0 mi SE 5.8 mph - N/A   Overcast
9:53 PM 36.0 °F 33.3 °F 18.0 °F 48% 30.10 in 10.0 mi SSE 3.5 mph - N/A   Overcast
10:53 PM 33.1 °F 25.5 °F 25.0 °F 72% 30.10 in 5.0 mi SSE 9.2 mph - 0.00 in Snow Light Snow
11:10 PM 32.0 °F 26.4 °F 26.6 °F 80% 30.05 in 2.0 mi SSE 5.8 mph - 0.00 in Snow Light Snow
11:30 PM 32.0 °F 26.4 °F 26.6 °F 80% 30.04 in 6.0 mi ESE 5.8 mph - 0.00 in Snow Light Snow
11:50 PM 32.0 °F 27.5 °F 26.6 °F 80% 30.03 in 3.0 mi SE 4.6 mph - 0.00 in Snow Light Snow
11:53 PM 32.0 °F 25.6 °F 27.0 °F 82% 30.08 in 3.0 mi SE 6.9 mph - 0.00 in Snow Light Snow